Location: Laguna de la Cañada del Gallo
(40.3974°N, 5.2096°W)
Time: 11:26:37
(UTC+00:00)

Ariane Rocket - Pass Details

Date: 18 April 2024
Orbit: 758 x 766 km, 98.5° (Epoch: 21 May)

Event Time Altitude Azimuth Distance (km) Brightness Sun altitude
Exits shadow 20:56:40 29° 78° (ENE) 1,365 3.9 -20.2°
Maximum altitude 20:57:10 30° 67° (ENE) 1,349 4.0 -20.3°
Drops below altitude 10° 21:01:30 10° 8° (N) 2,296 5.8 -21.0°
Sets 21:04:02 0° 358° (N) 3,226 6.8 -21.3°
